OPS 4682 DEB, 38412

Orbit data source: Space-Track

OPS 4682 DEB, 38412 is space debris in LEO originally from a launch on Sat, 03 Apr 1965 UTC launched from the Air Force Western Test Range (AFWTR). Debris objects in space refer to the collection of defunct objects orbiting the Earth. Examples of debris include non-operational satellites, rocket bodies, and fragments generated from explosions, collisions, or faulty payload assembly.

Loading next visibility...
Identifier
38412, 1965-027DR
Orbit
LEO
Country
Flag of USUS
Related business
Manufacturer
Unknown
Mission
Spacecraft
Bus & Motor
Unknown
Mass
Unknown
Launch date (UTC)
1965-04-03 (61 years ago)
Launch vehicle
Unknown
Launch site
Air Force Western Test Range (AFWTR)
Object type
Payload
Rocket body
Debris
Shape & HBR
Unknown shape, 0.1 m
Radar Cross Section
Small (<0.1 m²)

Expand to show TLE details & history
Last TLE update: 12 hours ago

TLE from 12 hours ago
0 OPS 4682 DEB
1 38412U 65027DR  26104.00592664  .00000429  00000-0  15047-2 0  9997
2 38412  90.2398   1.7851 0033875  62.4140 298.0413 12.94818813622356
Epoch: 2026-04-14T00:08Z
TLE epoch observation values (Epoch: 2026-04-14T00:08:32.061Z)
Latitude
-0.00003°
Longitude
157.46313°
Altitude
1,273.197 km
Speed
7.225 km/s
True Right ascension
00h 07m 08s
True Declination
0° 00' 00"
Sunlit
Object was in daylight at epoch
Visualization orbit readout
Latitude
Unknown
Longitude
Unknown
Altitude
Unknown
Speed
Unknown
Apparent Right ascension
Unknown
Apparent Declination
Unknown
Sunlit
N/A
Visualization observer readout
Local Sidereal Time
18:56:47
Azimuth
Unknown
Elevation
Unknown
Doppler factor
Unknown
Orbital elements
Apogee altitude
1,305.53 km
Perigee altitude
1,253.649 km
Semi-major axis
7,657.726 km
Eccentricity
0.00339
Inclination
90.2398°
RAAN
1.7851°
Arg. of periapsis
62.414°
True anomaly
297.69801°
Mean anomaly
298.0413°
Eccentric anomaly
297.86972°
Mean motion
3.23887 °/min
Orbital period
111.15 mins
BSTAR
0.0015047
Loading maneuver chart data...
Computing Atmospheric mass density...
Loading historical data...
Loading historical data...
Loading historical data...
Loading historical data...
Loading historical data...
Loading historical data...
Loading historical data...

Documentation

Showing up to 5 results
|